#timestamp,LO_Frequency,Hit,StdDev 
1550757615.5,286046996.8,N
1550757635.3,286046997.5,N
1550757655.2,286046997.5,N
1550757675.9,286046995.0,N
1550757695.7,286046997.5,N
1550757715.6,286046997.3,N
1550757735.4,286046997.3,N
1550757755.2,286046999.6,N
1550757775.1,286046996.8,N
1550757776.0,286046996.8,N
1550757795.8,286046996.7,N
1550757815.7,286046998.3,N
1550757835.5,286046999.1,N
1550757855.3,286046999.6,N
1550757875.2,286046999.6,N
1550757895.0,286046996.6,N
1550757895.9,286046996.6,N
1550757915.8,286046999.2,N
1550757935.6,286046997.3,N
1550757955.4,286046997.4,N
1550757975.3,286046999.4,N
1550757995.1,286046999.4,N
1550758015.8,286046997.8,N
1550758035.7,286046997.5,N
1550758055.5,286046997.3,N
1550758075.4,286046997.3,N
1550758095.2,286046997.7,N
1550758115.0,286046997.5,N
1550758115.9,286046997.5,N
1550758135.8,286046997.8,N
1550758155.6,286046997.7,N
1550758175.5,286046997.2,N
1550758195.3,286046999.5,N
1550758215.1,286046996.5,Y
1550758235.9,286046999.3,P
1550758255.7,286046997.0,P
1550758275.5,286046998.9,N
1550758295.4,286046999.0,N
1550758315.2,286046998.4,N
1550758335.1,286046999.5,N
1550758336.0,286046999.5,N
1550758355.8,286046997.9,N
1550758375.6,286046995.4,Y
1550758395.5,286046999.3,P
1550758415.3,286047000.4,N
1550758435.1,286047000.8,N
1550758455.9,286047000.5,N
1550758475.7,286047002.4,N
1550758495.6,286047000.2,N
1550758515.4,286047001.0,N
1550758535.2,286047000.1,N
1550758555.1,286046999.8,N
1550758556.0,286046999.8,N
1550758575.8,286047001.9,N
1550758595.7,286047000.0,N
1550758615.5,286047003.6,Y
1550758635.3,286047009.4,P
1550758655.2,286047009.3,N
1550758675.0,286047009.4,N
1550758675.9,286047009.4,N
1550758695.8,286047013.7,Y
1550758715.6,286047003.2,P
1550758735.4,286047001.6,N
1550758755.3,286047002.8,N
1550758775.1,286047000.6,N
1550758795.8,286047000.8,N
1550758815.7,286047001.3,N
1550758835.5,286047001.8,N
1550758855.4,286047000.2,N
1550758875.2,286046998.7,N
1550758895.0,286046999.3,N
1550758895.9,286046999.3,N
1550758915.8,286046999.5,N
1550758935.6,286046997.0,N
1550758955.4,286046999.2,N
1550758975.3,286046996.6,N
1550758995.1,286046996.5,N
1550759015.9,286046997.8,N
1550759035.7,286046995.4,N
1550759055.5,286046996.0,N
1550759075.4,286046993.7,N
1550759095.2,286046997.5,N
1550759115.0,286046997.1,N
1550759116.0,286046997.1,N
1550759135.8,286046996.5,N
1550759155.6,286046997.1,N
1550759175.5,286046995.2,N
1550759195.3,286046995.2,N
1550759215.1,286046996.3,N
1550759235.9,286046995.9,N
1550759255.7,286046996.2,N
1550759275.6,286046995.4,N
1550759295.4,286046997.0,N
1550759315.2,286046998.2,N
1550759335.1,286046996.9,N
1550759336.0,286046996.9,N
1550759355.8,286046998.2,N
1550759375.6,286047001.0,N
1550759395.5,286046999.8,N
1550759415.3,286047002.2,N
1550759435.2,286046999.8,N
1550759455.9,286047000.1,N
1550759475.7,286047001.4,N
1550759495.6,286047004.2,N
1550759515.4,286047003.0,N
1550759535.2,286047003.1,N
1550759555.1,286047004.1,N
1550759556.0,286047004.1,N
1550759575.8,286047004.4,N
1550759595.7,286047003.5,N
1550759615.5,286047003.9,N
1550759635.3,286047002.5,N
1550759655.2,286046999.8,N
1550759675.0,286047000.6,N
1550759675.9,286047000.6,N
1550759695.8,286046998.1,N
1550759715.6,286047000.4,N
1550759735.4,286047001.2,N
1550759755.3,286046999.3,N
1550759775.1,286046996.7,N
1550759795.8,286046997.1,N
1550759815.7,286046996.9,N
1550759835.5,286046996.6,N
1550759855.4,286046997.0,N
1550759875.2,286046996.5,N
1550759895.0,286046996.7,N
1550759895.9,286046996.7,N
1550759915.8,286046996.5,N
1550759935.6,286047001.1,N
1550759955.4,286047002.3,N
1550759975.3,286047000.6,N
1550759995.1,286047001.3,N
1550760015.9,286047001.9,N
1550760035.7,286047004.0,N
1550760055.5,286047003.0,N
1550760075.4,286047005.0,N
1550760095.2,286047007.8,N
1550760115.1,286047010.0,Y
1550760116.0,286047010.0,P
1550760135.8,286047008.1,N
1550760155.6,286047010.6,N
1550760175.5,286047009.9,N
1550760195.3,286047011.2,N
1550760215.2,286047011.3,Y
1550760235.9,286047004.1,P
1550760255.7,286047001.9,N
1550760275.6,286047001.5,N
1550760295.4,286047002.3,N
1550760315.2,286047002.4,N
1550760335.1,286047002.7,N
1550760336.0,286047002.7,N
1550760355.8,286046999.8,N
1550760375.7,286047000.1,N
1550760395.5,286047000.6,N
1550760415.3,286047000.0,N
1550760435.2,286047000.5,N
1550760455.0,286047002.2,N
1550760455.9,286047002.2,N
1550760475.7,286047006.0,N
1550760495.6,286047003.3,N
1550760515.4,286047006.4,N
1550760535.3,286047006.8,N
1550760555.1,286047008.1,Y
1550760575.8,286047008.9,P
1550760595.7,286047006.1,N
1550760615.5,286047005.0,N
1550760635.4,286047005.7,N
1550760655.2,286047005.7,N
1550760675.0,286047008.3,Y
1550760675.9,286047008.3,P
1550760695.8,286047003.5,N
1550760715.6,286047003.2,N
1550760735.5,286047006.4,Y
1550760755.3,286047001.8,P
1550760775.1,286047006.0,P
1550760795.9,286047005.5,P
1550760815.7,286047007.5,Y
1550760835.5,286047006.0,P
1550760855.4,286047004.9,P
1550760875.2,286047006.8,P
1550760895.1,286047005.8,Y
1550760896.0,286047005.8,P
1550760915.8,286047000.6,P
1550760935.6,286047001.4,N
1550760955.5,286047005.3,N
1550760975.3,286047006.8,Y
1550760995.2,286047005.4,P
1550761015.9,286047008.5,P
1550761035.7,286047010.4,P
1550761055.6,286047008.6,Y
1550761075.4,286047002.6,P
1550761095.2,286046998.7,N
1550761115.1,286046997.3,N
1550761116.0,286046997.3,N
1550761135.8,286046998.7,N
1550761155.7,286047002.4,N
1550761175.5,286047005.8,N
1550761195.3,286047007.9,N
